Showing default

EUTE KONNECT, 45027

Orbit data source: Space-Track

EUTE KONNECT, 45027 is a payload satellite owned by EutelsatSA (FR) in GEO that was launched on Thu, 16 Jan 2020 UTC via an ARIANE 5ECA+ launch vehicle from the French Guiana (FRGUI). Payload-class satellites include a variety of spacecraft equipped with specific instruments for various scientific and technological missions. These include communications satellites like Starlink; space stations such as the ISS; scientific satellites like the Hubble; Earth observation satellites from companies like Planet Labs, Umbra, and HawkEye 360; GPS; miniature CubeSats for education and research; and military/defense satellites.

Not visible in the next 10 days
Identifier
45027, 2020-005B
Orbit
GEO
Country
Flag of FRFR / EUTE
Related business
Manufacturer
Thales Alenia
Mission
Operational Commercial Communications
Bus & Motor
SPACEBUS NEO100, XPS/PPS-5000
Mass
3,619 kg wet, ~2,000 kg dry
Launch date (UTC)
2020-01-16 (6 years ago)
Launch vehicle
ARIANE 5ECA+
Launch site
French Guiana (FRGUI)
Object type
Payload
Rocket body
Debris
Shape & HBR
Box + 2 Pan, Unknown HBR
Radar Cross Section
34.063 m², Large (>1 m²)

Expand to show TLE details & history
Last TLE update: 2 days ago

TLE from 2 days ago
0 EUTE KONNECT
1 45027U 20005B   26171.39337050  .00000044  00000-0  00000+0 0  9999
2 45027   0.0730  95.2851 0001378 136.3918 185.7438  1.00268395 24365
Epoch: 2026-06-20T09:26Z
TLE epoch observation values (Epoch: 2026-06-20T09:26:27.211Z)
Latitude
-0.02696°
Longitude
7.20954°
Altitude
35,792.828 km
Speed
3.074 km/s
True Right ascension
03h 49m 43s
True Declination
0° 01' 37"
Sunlit
Object was in daylight at epoch
Visualization orbit readout
Latitude
Unknown
Longitude
Unknown
Altitude
Unknown
Speed
Unknown
Apparent Right ascension
Unknown
Apparent Declination
Unknown
Sunlit
N/A
Visualization observer readout
Local Sidereal Time
21:33:14
Azimuth
Unknown
Elevation
Unknown
Doppler factor
Unknown
Orbital elements
Apogee altitude
35,794.426 km
Perigee altitude
35,782.805 km
Semi-major axis
42,166.753 km
Eccentricity
0.00014
Inclination
0.073°
RAAN
95.2851°
Arg. of periapsis
136.3918°
True anomaly
185.74222°
Mean anomaly
185.7438°
Eccentric anomaly
185.74301°
Mean motion
0.25066 °/min
Orbital period
1,436.2 mins
BSTAR
0
Loading maneuver chart data...
Computing Atmospheric mass density...
Loading historical data...
Loading historical data...
Loading historical data...
Loading historical data...
Loading historical data...
Loading historical data...
Loading historical data...
Other satellites on launch #5 in the year 2020 (2020-01-16 UTC)

Documentation

Showing up to 5 results
|